Location: Melbourne
(37.8170°S, 144.9670°E)
Time: 17:45:43
(UTC+10:00)

Vanguard 1 Rocket - Visible Passes

Search period start: 25 June 2018 00:00
Search period end: 05 July 2018 00:00
Orbit: 653 x 4224 km, 34.3° (Epoch: 24 June)

Date Brightness Start Highest point End Pass type
(mag) Time Alt. Az. Time Alt. Az. Time Alt. Az.
25 Jun 10.6 02:35:44 61° NE 02:35:44 61° NE 02:59:44 10° E visible
25 Jun 10.5 04:53:02 37° WNW 05:08:11 80° N 05:29:43 10° E visible
26 Jun 11.0 01:28:40 40° ENE 01:28:40 40° ENE 01:44:50 10° ESE visible
26 Jun 10.4 03:45:58 61° NW 03:52:33 76° NNE 04:16:35 10° E visible
26 Jun 10.5 06:03:16 17° W 06:26:19 79° N 06:45:07 10° ENE visible
27 Jun 11.5 00:21:33 20° E 00:21:33 20° E 00:28:35 10° E visible
27 Jun 10.5 02:38:50 66° NE 02:38:50 66° NE 03:02:37 10° E visible
27 Jun 10.5 04:56:07 38° W 05:10:53 81° N 05:32:45 10° E visible
28 Jun 11.0 01:31:40 43° ENE 01:31:40 43° ENE 01:47:46 10° ESE visible
28 Jun 10.4 03:48:56 64° NW 03:55:07 79° N 04:19:32 10° E visible
28 Jun 10.6 06:06:13 18° W 06:28:57 76° NNW 06:48:05 10° ENE visible
29 Jun 11.5 00:24:26 22° E 00:24:26 22° E 00:31:48 10° ESE visible
29 Jun 10.4 02:41:42 70° NE 02:41:42 70° NE 03:05:29 10° E visible
29 Jun 10.5 04:58:59 38° W 05:13:33 81° N 05:35:44 10° ENE visible
30 Jun 10.9 01:34:27 45° E 01:34:27 45° E 01:50:35 10° ESE visible
30 Jun 10.3 03:51:43 65° WNW 03:57:45 81° N 04:22:28 10° E visible
30 Jun 10.6 06:09:00 18° W 06:31:29 72° NNW 06:50:56 10° ENE visible
01 Jul 11.4 00:27:09 23° E 00:27:09 23° E 00:34:46 10° ESE visible
01 Jul 10.4 02:44:26 73° NE 02:44:26 73° NE 03:08:20 10° E visible
01 Jul 10.6 05:01:42 38° W 05:16:11 79° N 05:38:39 10° ENE visible
02 Jul 10.9 01:37:07 46° E 01:37:07 46° E 01:53:21 10° E visible
02 Jul 10.3 03:54:23 65° WNW 04:00:25 81° N 04:25:23 10° E visible
02 Jul 10.7 06:11:40 18° W 06:33:53 67° NNW 06:53:38 10° NE visible
03 Jul 11.4 00:29:48 24° E 00:29:48 24° E 00:37:35 10° ESE visible
03 Jul 10.4 02:47:04 76° NE 02:47:04 76° NE 03:11:10 10° E visible
03 Jul 10.6 05:04:20 38° W 05:18:46 76° NNW 05:41:28 10° ENE visible
04 Jul 10.8 01:39:44 47° E 01:39:44 47° E 01:56:06 10° E visible
04 Jul 10.3 03:57:01 64° WNW 04:03:04 81° N 04:28:15 10° ENE visible
04 Jul 10.7 06:14:17 17° W 06:36:08 61° NNW 06:56:09 10° NE visible
